Regional Weather Roundup
Issued by NWS

Home | Current Version | Previous Version | Text Only | Print | Product List | Glossary On
Versions: 1 2 3 4 5 6 7 8 9 10 11 12 13 14 15 16 17 18 19 20 21 22 23 24 25 26 27 28 29 30 31 32 33 34 35 36 37 38 39 40 41 42 43 44 45 46 47 48 49 50
000
ASUS43 KLMK 020202
RWRKY
KENTUCKY REGIONAL WEATHER ROUNDUP
NATIONAL WEATHER SERVICE LOUISVILLE KY
1000 PM EDT SAT AUG 01 2015

NOTE "FAIR" INDICATES FEW OR NO CLOUDS BELOW 12,000 FEET
WITH NO SIGNIFICANT WEATHER AND/OR OBSTRUCTIONS TO VISIBILITY.

KYZ001>023-026-027-061>063-070>075-020300-
WESTERN AND SOUTH CENTRAL KENTUCKY

CITY           SKY/WX    TMP DP  RH WIND       PRES   REMARKS
PADUCAH        PTCLDY    76  71  85 CALM      29.97R
HENDERSON      PTCLDY    72  64  78 CALM      29.97S
OWENSBORO      PTCLDY    78  65  64 CALM      29.99R
HOPKINSVILLE   NOT AVBL
BOWLING GREEN  CLEAR     78  59  51 N3        30.00R
GLASGOW        NOT AVBL
$$

KYZ024-025-028>034-038-045-046-053-020300-
NORTH CENTRAL KENTUCKY

CITY           SKY/WX    TMP DP  RH WIND       PRES   REMARKS
LOUISVILLE/SDF PTCLDY    79  56  45 NE6       29.98R
LOUISVILLE/LOU CLEAR     78  58  49 CALM      29.99S
FORT KNOX      NOT AVBL
$$

KYZ035>037-039>044-047>052-055>060-089>105-020300-
NORTHEAST KENTUCKY

CITY           SKY/WX    TMP DP  RH WIND       PRES   REMARKS
LEXINGTON      CLEAR     72  59  63 N3        30.01R
COVINGTON      PTCLDY    71  60  68 W3        30.00R
FRANKFORT      CLEAR     69  61  75 N3        29.99R
$$

KYZ054-064>069-076>088-106>120-020300-
SOUTHEAST KENTUCKY

CITY           SKY/WX    TMP DP  RH WIND       PRES   REMARKS
JACKSON        CLEAR     72  56  57 CALM      30.01R
LONDON         CLEAR     74  57  55 CALM      30.01R
SOMERSET       NOT AVBL
MIDDLESBORO    CLEAR     72  64  77 CALM      30.01R
MONTICELLO     PTCLDY    66  65  97 CALM      30.03R
$$



USA.gov is the U.S. government's official web portal to all federal, state and local government web resources and services.